Home > Weather > Gainesville > Past weeks

Flag for U.S.A. Weather for the Past 2 Weeks in Gainesville, Florida, U.S.A.

Now
58 °F

Sunny.


Feels Like: 56 °F
Forecast: 27 / 65 °F
Wind: 9 mph from Southwest

Location: Gainesville Regional Airport

Current Time: Feb 11, 2016 at 12:16:47 PM

Latest Report: Feb 11, 2016 at 10:53 AM


Visibility: 10 mi

Pressure: 30.32 "Hg

Humidity: 43%

Dew point: 35 °F

Location of GainesvilleLocation

Historic Weather in Gainesville — Graph

°F

Gainesville Temperature Yesterday

Maximum temperature yesterday: 54 °F (at 2:53 PM)
Minimum temperature yesterday: 30 °F (at 4:53 AM)
Average temperature yesterday: 41 °F

High & Low Weather Summary for the Past Weeks

 TemperatureHumidityPressure
High82 °F (Feb 2, 2:53 PM)100% (Jan 28, 12:53 PM)30.34 "Hg (Jan 28, 12:53 PM)
Low28 °F (Feb 11, 6:53 AM)19% (Feb 10, 1:53 PM)29.77 "Hg (Jan 28, 2:53 PM)
Average54 °F73%30.07 "Hg
* Reported Jan 27 10:53 AM — Feb 11 10:53 AM, Gainesville, Weather by CustomWeather, © 2016

Note: Actual official high and low records may vary slightly from our data, if they occured in-between our weather recording intervals... More about our weather records

Advertising

Gainesville Weather History for the Previous 24 Hours

 ConditionsComfort  
Time TempWeatherWind HumidityBarometerVisibility
10:53 AM
Thu, Feb 11
58 °FSunny.9 mph43%30.32 "Hg10 mi
9:53 AM52 °FSunny.3 mph40%30.33 "Hg10 mi
8:53 AM43 °FSunny.No wind68%30.34 "Hg10 mi
7:53 AM32 °FSunny.No wind88%30.32 "Hg10 mi
6:53 AM28 °FClear.No wind93%30.31 "Hg10 mi
5:53 AM29 °FClear.No wind89%30.31 "Hg10 mi
4:53 AM30 °FClear.No wind85%30.29 "Hg10 mi
3:53 AM30 °FClear.No wind85%30.28 "Hg10 mi
2:53 AM31 °FClear.No wind82%30.27 "Hg10 mi
1:53 AM34 °FClear.3 mph73%30.25 "Hg10 mi
12:53 AM31 °FClear.No wind79%30.24 "Hg10 mi
11:53 PM
Wed, Feb 10
33 °FClear.No wind72%30.25 "Hg10 mi
10:53 PM34 °FClear.No wind64%30.26 "Hg10 mi
9:53 PM39 °FClear.5 mph48%30.25 "Hg10 mi
8:53 PM37 °FClear.6 mph54%30.25 "Hg10 mi
7:53 PM40 °FClear.7 mph47%30.24 "Hg10 mi
6:53 PM44 °FClear.7 mph37%30.23 "Hg10 mi
5:53 PM49 °FSunny.13 mph22%30.20 "Hg10 mi
4:53 PM52 °FSunny.15 mph19%30.18 "Hg10 mi
3:53 PM54 °FSunny.16 mph19%30.15 "Hg10 mi
2:53 PM54 °FSunny.12 mph19%30.15 "Hg10 mi
1:53 PM53 °FSunny.15 mph19%30.15 "Hg10 mi
12:53 PM52 °FSunny.15 mph22%30.17 "Hg10 mi
Weather by CustomWeather, © 2016

See weather overviewHow to use our weather pages